Home   Weather   Newark   Past weeks

Flag for USA Past Weather in Newark, New Jersey, USA — Yesterday and Last 2 Weeks

Now
78 °F

Broken clouds.


Feels Like: 78 °F
Forecast: 63 / 78 °F
Wind: 21 mph from West

Location: Newark International Airport

Current Time: Jun 27, 2017 at 6:39:33 pm

Latest Report: Jun 27, 2017 at 5:51 pm


Visibility: 10 mi

Pressure: 29.91 "Hg

Humidity: 33%

Dew Point: 47 °F

Location of NewarkLocation

Past Weather in Newark — Graph

°F

Newark Temperature Yesterday

Maximum temperature yesterday: 81 °F (at 3:51 pm)
Minimum temperature yesterday: 64 °F (at 4:51 am)
Average temperature yesterday: 73 °F

High & Low Weather Summary for the Past Weeks

 TemperatureHumidityPressure
High98 °F (Jun 13, 2:10 pm)100% (Jun 17, 12:51 am)30.06 "Hg (Jun 17, 12:51 am)
Low62 °F (Jun 27, 5:51 am)27% (Jun 26, 3:51 pm)29.57 "Hg (Jun 24, 6:30 am)
Average76 °F66%29.90 "Hg
* Reported Jun 12 4:51 pm — Jun 27 4:51 pm, Newark. Weather by CustomWeather, © 2017

Note: Actual official high and low records may vary slightly from our data, if they occured in-between our weather recording intervals... More about our weather records

Advertising

Newark Weather History for the Previous 24 Hours

Scroll right to see more
 ConditionsComfort  
Time TempWeatherWind HumidityBarometerVisibility
4:51 pm
Tue, Jun 27
77 °FPartly sunny.9 mph44%29.91 "Hg10 mi
3:51 pm78 °FBroken clouds.12 mph45%29.92 "Hg10 mi
2:51 pm74 °FLight rain. Broken clouds.14 mph60%29.93 "Hg10 mi
1:51 pm77 °FScattered clouds.8 mph45%29.94 "Hg10 mi
12:51 pm76 °FBroken clouds.9 mph50%29.97 "Hg10 mi
11:51 am72 °FBroken clouds.8 mph68%29.98 "Hg10 mi
10:51 am69 °FBroken clouds.8 mph73%30.00 "Hg10 mi
9:51 am67 °FCloudy.7 mph76%30.01 "Hg10 mi
8:51 am70 °FBroken clouds.3 mph71%30.00 "Hg10 mi
7:51 am65 °FBroken clouds.No wind81%30.00 "Hg10 mi
6:51 am63 °FPartly sunny.3 mph87%30.00 "Hg10 mi
5:51 am62 °FLight rain. Mostly cloudy.3 mph83%30.01 "Hg8 mi
4:51 am63 °FLight rain. Overcast.6 mph75%30.00 "Hg9 mi
3:51 am66 °FMostly cloudy.8 mph59%29.98 "Hg10 mi
2:51 am68 °FPassing clouds.8 mph53%29.98 "Hg10 mi
1:51 am69 °FPassing clouds.10 mph51%29.99 "Hg10 mi
12:51 am69 °FPassing clouds.6 mph51%29.97 "Hg10 mi
11:51 pm
Mon, Jun 26
72 °FClear.12 mph41%29.98 "Hg10 mi
10:51 pm71 °FPassing clouds.10 mph44%29.98 "Hg10 mi
9:51 pm74 °FPassing clouds.9 mph37%29.97 "Hg10 mi
8:51 pm75 °FPassing clouds.8 mph34%29.96 "Hg10 mi
7:51 pm77 °FPassing clouds.14 mph32%29.97 "Hg10 mi
6:51 pm78 °FPassing clouds.16 mph31%29.97 "Hg10 mi
Weather by CustomWeather, © 2017

See weather overviewHow to use our weather pages